Kuchera_Ratio
0.0 0.0 0.0 0.0 0.0 0.0 0.0 0.0 0.0 0.0 0.0 0.0 0.0 0.0 0.0 0.0 0.0 0.0 0.0 0.0 0.0 3.6 2.4 0.0 0.0 0.0 0.0 0.0 2.8 0.0 0.4 0.0 0.0 3.8 3.4 6.0 4.6 1.4 0.8 0.0 3.2 5.6 10.4 11.0 8.2 12.4 13.8 0.0 0.0 0.4 0.0 0.0 0.0 0.0
0.0 0.0 0.0 0.0 0.0 0.0 0.0 0.0 0.0 0.0 0.0 0.0 0.0 0.0 0.0 0.0 0.0 0.0 0.0 0.0 0.0 0.0 1.4 0.0 0.0 0.0 0.0 0.0 0.0 0.0 0.0 0.0 0.0 0.0 0.0 0.0 4.2 1.6 1.2 8.2 0.0 5.6 0.0 3.8 3.4 3.4 0.0 0.0 0.0 0.0 0.0 0.0 0.0 0.0
0.0 0.0 0.0 0.0 0.0 0.0 0.0 0.0 0.0 0.0 0.0 0.0 0.0 0.0 0.0 0.0 0.0 0.0 0.0 0.0 0.0 0.0 1.4 0.0 0.0 0.0 0.0 0.0 0.0 0.0 0.0 0.0 0.0 0.0 0.0 0.0 3.4 0.0 5.2 0.8 0.0 0.0 0.0 0.0 0.0 0.0 0.0 0.0 0.0 0.0 0.0 0.0 0.0 0.0
0.0 0.0 0.0 0.0 0.0 0.0 0.0 0.0 0.0 0.0 0.0 0.0 0.0 0.0 0.0 0.0 0.0 0.0 0.0 0.0 0.0 0.0 5.0 4.0 0.0 0.0 0.0 0.0 0.0 0.0 0.0 0.0 0.0 0.0 0.0 0.0 0.0 0.0 0.0 0.0 0.0 0.0 0.0 0.0 0.0 0.0 0.0 0.0 0.0 0.0 0.0 0.0 0.0 0.0
0.0 0.0 0.0 0.0 0.0 0.0 0.0 0.0 0.0 0.0 0.0 0.0 0.0 0.0 0.0 0.0 0.0 0.0 0.0 0.0 0.0 0.0 4.8 4.4 0.0 0.0 0.0 0.0 0.0 0.0 0.0 0.0 0.0 0.0 0.0 0.0 0.0 0.0 0.0 0.0 0.0 0.0 0.0 0.0 1.4 0.0 0.0 0.0 0.0 0.0 0.0 0.0 0.0 0.0
0.0 0.0 0.0 0.0 0.0 0.0 0.0 0.0 0.0 0.0 0.0 0.0 0.0 0.0 0.0 0.0 0.0 0.0 4.1 0.0 0.0 0.0 0.0 7.4 0.0 0.0 0.0 0.0 0.0 0.0 0.0 0.0 0.0 0.0 0.0 0.0 0.0 0.0 2.2 2.4 0.0 0.0 0.0 0.0 0.0 0.0 0.0 0.0 0.0 0.0 0.0 0.0 0.0 0.0
0.0 0.0 0.0 0.0 0.0 0.0 0.0 0.0 0.0 0.0 0.0 0.0 0.0 0.0 0.0 0.0 0.0 0.0 0.0 0.0 0.0 0.0 0.0 5.4 4.8 0.0 0.0 0.0 0.0 0.0 0.0 0.0 0.0 0.0 0.0 0.0 0.0 0.0 1.4 5.8 0.0 0.0 0.0 0.0 0.0 0.0 0.0 0.0 0.0 0.0 0.0 0.0 0.0 0.0
0.0 0.0 0.0 0.0 0.0 0.0 0.0 0.0 0.0 0.0 0.0 0.0 0.0 0.0 0.0 0.0 0.0 0.0 0.0 0.0 0.0 0.0 0.0 4.4 9.4 4.4 0.0 0.0 2.6 0.0 0.0 0.0 0.0 0.0 0.0 0.0 0.0 0.0 7.6 0.0 0.0 0.0 0.0 0.0 0.0 0.0 0.0 0.0 0.0 0.0 0.0 0.0 0.0 0.0
0.0 0.0 0.0 0.0 0.0 0.0 0.0 0.0 0.0 0.0 0.0 0.0 0.0 0.0 0.0 0.0 0.0 0.0 0.0 0.0 0.0 0.0 0.0 0.0 5.4 11.2 0.0 2.6 1.8 0.2 0.0 5.6 0.0 0.4 0.0 0.0 0.6 6.4 0.0 0.0 0.0 0.0 0.0 0.0 0.0 0.0 0.0 0.0 0.0 0.0 0.0 0.0 0.0 0.0
0.0 0.0 0.0 0.0 0.0 0.0 0.0 0.0 0.0 0.0 0.0 0.0 0.0 0.0 7.4 0.0 0.0 0.0 0.0 0.0 0.0 0.0 0.0 0.0 0.0 4.8 0.0 0.0 5.4 5.2 0.0 2.0 7.2 0.0 0.0 3.0 2.2 0.0 0.0 0.0 0.0 0.0 0.0 0.0 3.2 0.0 0.0 0.0 0.0 0.0 0.0 0.0 0.0 0.2
0.0 0.0 0.0 0.0 0.0 0.0 0.0 0.0 0.0 0.0 0.0 0.0 2.4 6.6 0.0 0.0 0.0 0.0 7.0 2.8 0.0 1.8 0.0 0.0 0.0 2.8 0.0 3.0 4.8 0.0 3.4 0.0 9.0 3.2 4.0 4.6 3.2 0.0 0.0 0.0 0.0 0.4 1.4 3.0 2.2 1.4 0.8 0.8 2.8 0.0 0.0 3.6 4.6 4.4
0.0 0.0 0.0 0.0 0.0 0.0 0.0 0.0 0.0 0.0 0.0 0.0 0.0 0.0 0.0 0.0 0.0 5.6 6.8 2.2 1.6 3.4 0.0 0.0 0.0 0.0 0.0 0.0 2.6 0.2 6.0 2.8 12.7 0.0 7.4 9.0 6.0 0.0 0.0 1.4 2.0 1.4 1.6 2.6 1.4 3.8 2.0 3.6 4.0 5.2 5.2 5.2 6.6 6.6
0.0 0.0 0.0 0.0 0.0 0.0 0.0 0.0 0.0 0.0 0.0 0.0 0.0 0.0 0.0 1.6 12.0 12.4 14.7 7.4 6.0 0.0 0.0 0.0 3.0 0.0 0.0 0.0 2.2 2.6 10.4 9.8 0.0 10.0 8.4 1.2 4.2 0.0 0.0 1.0 3.2 2.8 3.0 4.6 4.6 5.0 5.8 5.2 5.4 6.0 7.2 7.4 6.8 7.6
0.0 0.0 0.0 0.0 0.0 0.0 0.0 0.0 0.0 0.0 0.0 0.0 0.0 12.3 6.4 11.8 4.6 2.2 2.6 2.6 0.0 0.0 0.0 0.0 0.6 1.0 0.6 2.4 3.0 11.4 4.2 2.4 12.6 13.5 10.6 1.6 2.2 0.0 0.6 0.4 2.6 2.6 2.8 3.0 4.2 6.0 7.6 7.6 8.4 7.6 7.8 7.4 7.6 8.6
0.0 0.0 0.0 0.0 0.0 0.0 0.0 0.0 0.0 0.0 0.0 0.0 0.0 10.6 7.6 0.0 0.6 2.2 0.0 0.0 0.0 0.0 0.0 0.0 0.0 0.0 2.2 9.6 2.2 5.6 12.6 13.6 8.6 8.8 4.6 0.0 0.0 0.0 0.8 0.2 2.2 4.6 7.2 6.6 5.4 7.4 8.2 7.8 8.0 8.6 8.2 7.6 7.2 7.8
0.0 0.0 0.0 0.0 0.0 0.0 0.0 0.0 0.0 0.0 0.0 0.0 0.0 5.0 1.6 3.6 8.6 8.2 4.2 2.0 0.0 0.0 0.0 0.0 2.8 7.8 9.2 5.2 9.6 12.0 10.4 11.2 5.0 2.6 0.0 0.0 0.0 0.2 1.0 2.4 2.2 2.4 2.2 4.8 5.2 5.8 6.8 8.0 7.8 8.2 7.6 7.8 8.2 8.2
0.0 0.0 0.0 0.0 0.0 0.0 0.0 0.0 0.0 0.0 0.0 0.2 6.6 5.2 5.4 3.6 7.8 6.0 0.0 0.0 0.0 0.0 4.0 0.2 9.4 8.4 0.4 7.6 8.4 1.6 6.4 1.2 4.2 3.2 0.2 0.0 1.4 2.6 2.6 3.4 5.8 4.0 3.2 3.8 4.8 4.6 5.4 6.0 6.6 5.2 6.2 5.2 4.0 3.8
0.0 0.0 0.0 0.0 0.0 0.0 0.0 0.0 0.0 0.0 3.8 0.0 4.4 6.6 4.4 4.8 8.0 5.8 0.0 0.0 0.0 0.0 0.0 2.8 0.0 6.0 9.8 9.6 5.4 0.0 0.0 3.8 0.8 0.8 1.0 0.0 0.0 0.2 0.0 0.0 0.0 0.0 1.4 3.6 3.4 3.8 3.6 4.6 4.4 3.8 2.0 2.0 3.6 2.4
0.0 0.0 0.0 0.0 0.0 0.0 0.0 0.0 0.0 5.8 3.8 3.0 1.4 0.4 2.6 5.6 3.2 1.0 0.8 0.0 0.0 0.0 0.0 0.0 4.6 5.2 2.8 0.0 0.0 4.2 3.0 0.0 3.4 2.2 1.2 0.0 0.0 0.0 0.0 0.0 0.0 0.0 0.0 0.0 0.0 0.2 0.0 0.0 0.0 0.0 0.6 1.8 3.8 2.4
0.0 0.0 0.0 0.0 0.0 0.0 0.2 0.0 0.0 3.6 6.2 2.8 0.0 1.4 0.0 0.0 0.0 2.6 2.8 2.4 2.4 1.6 4.4 5.8 3.8 0.0 0.0 0.0 0.0 0.0 0.0 0.0 0.0 3.0 3.4 0.4 0.0 0.0 0.0 0.0 0.0 0.0 0.0 0.0 0.0 3.2 0.0 0.2 0.0 0.0 0.0 2.4 4.2 6.0
0.0 0.0 0.0 0.0 0.0 0.0 0.0 0.0 2.0 1.4 0.0 3.0 0.0 1.8 4.4 1.4 3.8 7.0 7.0 2.8 8.6 7.6 4.6 0.0 0.0 0.0 0.0 0.0 0.0 0.0 0.0 0.0 0.8 0.0 0.8 1.8 0.0 0.0 0.0 0.0 0.0 0.0 0.0 1.0 2.4 3.2 3.0 0.8 0.6 0.4 4.8 7.4 6.8 6.0
0.0 0.0 0.0 0.0 0.0 0.0 0.0 0.0 0.0 0.0 1.6 2.2 4.0 1.4 5.4 8.8 8.6 7.0 0.4 7.2 6.2 1.8 0.0 0.0 0.0 0.0 2.8 2.6 1.0 0.0 0.6 2.2 3.6 4.6 5.3 3.6 4.2 5.0 4.2 1.8 2.6 1.8 2.2 2.6 1.6 1.8 1.0 0.0 0.4 2.0 6.4 8.0 6.4 7.0
0.0 0.0 0.0 0.0 6.6 6.4 7.0 0.0 3.6 0.0 8.0 5.4 0.6 5.6 6.2 7.2 3.2 0.4 8.0 2.6 1.0 0.0 0.0 0.8 0.0 0.0 1.2 1.0 1.4 1.0 0.2 0.2 2.0 2.0 3.2 2.6 2.6 1.8 0.6 1.2 1.2 5.4 5.4 1.2 0.0 0.0 1.8 1.9 4.0 6.2 7.0 7.6 8.2 9.0
0.0 3.8 12.4 10.6 9.2 13.0 7.4 10.6 2.6 4.6 3.8 6.0 7.0 10.0 6.2 5.6 3.0 6.6 9.6 3.8 4.6 4.2 5.0 6.0 3.6 5.2 4.0 3.4 4.0 2.0 1.0 1.0 3.2 3.8 1.4 2.8 4.6 3.4 0.8 1.6 2.0 2.8 2.8 3.0 2.8 2.8 4.4 5.2 5.4 6.0 8.2 8.4 9.0 9.2
11.8 14.2 13.5 15.2 12.0 13.9 14.4 13.7 12.9 10.2 13.0 9.6 11.8 10.6 9.4 6.8 12.1 10.8 9.4 5.8 8.0 8.6 8.0 6.6 5.8 6.0 7.0 5.6 4.4 3.6 2.2 0.6 3.8 5.6 4.6 1.0 1.8 2.6 3.4 3.0 3.2 3.8 4.2 6.2 6.6 7.0 7.6 7.4 7.6 8.0 8.4 8.8 9.2 9.4
16.1 14.6 15.7 14.3 14.3 14.7 13.4 15.8 14.9 14.7 13.6 14.8 13.0 9.0 9.2 12.0 13.4 13.8 12.8 12.7 12.0 11.8 11.8 11.2 10.0 7.8 7.2 5.4 7.6 8.8 6.6 1.2 1.8 5.2 3.0 2.2 2.2 5.0 7.4 8.0 7.4 7.2 3.6 6.0 7.0 7.2 6.8 7.0 7.8 8.4 8.6 8.4 8.6 8.8
16.6 16.5 13.3 8.2 11.0 12.4 13.8 12.7 11.0 13.7 15.7 15.8 13.8 14.9 14.4 16.6 15.2 15.2 13.1 12.8 12.9 12.6 12.2 12.0 12.2 11.6 10.6 9.0 8.4 9.2 8.4 8.2 6.8 4.4 3.4 2.8 4.6 3.6 4.8 6.8 8.0 7.4 4.6 6.0 6.6 8.4 8.6 8.0 7.2 7.6 8.0 8.0 8.2 8.0
14.1 14.1 18.2 15.6 14.7 12.7 16.9 15.9 16.0 16.5 14.5 12.3 13.7 17.2 17.1 16.0 15.5 13.6 12.8 12.2 12.1 12.0 12.2 11.6 11.6 12.0 12.0 10.8 9.2 9.8 10.0 9.8 10.2 9.2 7.2 7.2 6.6 7.2 8.0 7.0 7.4 10.8 6.8 6.6 6.6 6.8 8.0 8.2 8.0 8.0 7.6 7.6 7.8 7.8
16.5 14.6 15.2 19.9 18.1 15.9 15.8 16.1 15.4 12.4 9.6 13.0 16.1 16.0 14.4 11.6 12.2 12.6 11.2 11.4 11.8 13.3 14.4 14.2 13.2 12.3 12.9 12.0 11.6 11.4 11.0 11.6 12.7 14.1 13.8 12.7 12.7 11.6 8.4 9.0 9.0 9.2 9.4 9.8 8.2 9.2 8.6 8.8 8.6 8.4 8.0 8.0 6.8 6.8
17.2 14.1 16.7 18.7 19.9 18.8 14.9 12.6 13.6 12.0 11.2 11.8 12.2 12.5 12.3 11.8 9.4 7.2 11.6 12.5 13.4 14.3 13.7 13.6 13.7 14.6 15.2 14.1 13.5 13.3 12.7 12.6 12.5 12.7 12.2 11.6 10.4 10.6 10.4 11.0 11.0 10.6 10.6 10.8 10.8 9.8 9.0 9.2 8.4 8.4 8.8 8.4 8.2 7.8
15.3 16.0 17.0 17.0 18.0 14.9 13.6 13.9 14.7 14.9 15.3 15.4 14.1 15.6 15.4 13.8 12.1 9.2 11.6 12.3 13.0 13.7 14.9 15.6 15.5 14.8 15.2 15.0 14.6 14.7 15.1 14.2 14.8 14.7 14.0 12.7 12.2 12.2 12.2 12.2 11.6 11.2 11.6 12.0 12.0 11.8 11.4 11.2 10.2 9.0 8.8 8.6 8.2 8.4
17.1 17.8 18.6 20.4 18.0 15.3 15.4 16.2 16.1 16.2 15.6 15.7 15.9 14.6 15.0 16.5 18.0 13.8 11.4 13.2 14.9 16.1 15.6 15.5 15.5 15.2 14.5 14.6 15.2 15.2 16.0 15.2 15.2 15.4 15.4 14.9 13.9 13.8 13.1 12.6 12.3 12.3 12.4 12.5 12.4 12.4 12.2 12.5 12.0 10.4 9.4 9.2 8.6 8.6
19.2 18.8 18.8 19.1 19.0 19.1 16.6 17.9 17.7 18.0 17.2 17.6 16.7 15.7 15.7 16.6 18.5 13.5 12.5 12.7 13.8 14.3 14.9 14.6 14.3 13.9 15.2 15.8 15.9 16.1 16.4 16.0 17.2 17.8 18.0 18.2 18.3 17.4 16.5 14.3 13.1 12.9 13.2 13.1 12.6 12.2 12.6 12.6 12.6 11.8 10.8 9.6 9.2 8.6